User: anonymous   Login
Location: Unspecified
(0.0000°N, 0.0000°E)
Time: 22:26:35
(UTC+00:00)
Language:

STARLINK-32686 - Orbit

View from above orbital plane
View from above orbital plane
View from above satellite
View from above satellite

Ground track
Ground track

The orbit is defined by the following mean orbital elements,

1 62192U          26145.45537250 +.00000000 +00000-0 +45657-3 0 00002
2 62192  43.0033 193.5655 0001690 269.4502  90.6156 15.27587314    03
Epoch (UTC): 25 May 2026 10:55:44
Eccentricity: 0.0001690
inclination: 43.0033°
perigee height: 482 km
apogee height: 484 km
right ascension of ascending node: 193.5655°
argument of perigee: 269.4502°
revolutions per day: 15.27587314
mean anomaly at epoch: 90.6156°

The dashed part of the orbit path shows where the satellite is in the earth's shadow,  

DLR